User: anonymous   Login
Location: Sternwarte Stuttgart
(48.7670°N, 9.1830°E)
Time: 05:29:25
(UTC+02:00)
Language:

CZ-4B R/B - Orbit

View from above orbital plane
View from above orbital plane
View from above satellite
View from above satellite

Ground track
Ground track

The orbit data is extracted from the following two-line orbital elements,

1 27432U 02024C   19145.95581677 -.00000017 +00000-0 +15248-4 0  9997
2 27432 099.0685 136.9401 0050253 191.3772 221.9880 14.14079507878748
Epoch (UTC): 25 May 2019 22:56:22
Eccentricity: 0.0050253
inclination: 99.0685°
perigee height: 809 km
apogee height: 882 km
right ascension of ascending node: 136.9401°
argument of perigee: 191.3772°
revolutions per day: 14.14079507
mean anomaly at epoch: 221.9880°
orbit number at epoch: 87874

The dashed part of the orbit path shows where the satellite is in the earth's shadow,  

DLR